Hourly Data Report for March 06, 2012

All times are specified in Local Standard Time (LST). Add 1 hour to adjust for Daylight Saving Time where and when it is observed.

MIRAMICHI RCS
NEW BRUNSWICK

47°00'34.000" N
65°27'54.000" W
33.00 m
8100989
71744
ACQ

Download Data

Hourly Data (March 2012)
Hourly Data Report for March 6, 2012
TIME Temp Definition
°C
Dew Point Temp Definition
°C
Rel Hum Definition
%
Wind Dir Definition
10's deg

Wind Spd Definition
km/h
Visibility Definition
km
Stn Press Definition
kPa
Hmdx Definition


Wind Chill Definition


Weather Definition


00:00 -8.7 -10.3 88 2 6   101.89   -12 LegendNANA
01:00 -9.5 -11.3 87 1 6   101.99   -13 LegendNANA
02:00 -9.4 -11.3 86 36 6   102.07   -13 LegendNANA
03:00 -9.9 -11.9 85 1 6   102.13   -13 LegendNANA
04:00 -10.3 -12.2 86 2 7   102.14   -14 LegendNANA
05:00 -11.2 -13.1 86 3 6   102.19   -15 LegendNANA
06:00 -14.0 -15.5 88   0   102.30     LegendNANA
07:00 -15.3 -16.8 88 28 4   102.42   -18 LegendNANA
08:00 -12.5 -14.2 87   0   102.55     LegendNANA
09:00 -9.6 -12.0 83 36 7   102.58   -14 LegendNANA
10:00 -7.3 -11.1 74 4 6   102.60   -10 LegendNANA
11:00 -5.2 -10.7 65 5 4   102.62   -7 LegendNANA
12:00 -4.5 -11.1 60 3 7   102.62   -8 LegendNANA
13:00 -3.5 -10.8 57 9 6   102.55   -6 LegendNANA
14:00 -3.6 -10.6 58 1 6   102.50   -6 LegendNANA
15:00 -2.5 -10.7 53 33 7   102.50   -5 LegendNANA
16:00 -3.7 -9.7 63 8 13   102.54   -9 LegendNANA
17:00 -5.1 -9.9 69 8 9   102.59   -9 LegendNANA
18:00 -6.5 -10.7 72 6 9   102.63   -11 LegendNANA
19:00 -7.5 -11.3 74 5 6   102.73   -11 LegendNANA
20:00 -9.5 -11.7 84   0   102.77     LegendNANA
21:00 -8.6 -11.5 80 30 2   102.79   -10 LegendNANA
22:00 -11.3 -13.1 87 26 4   102.81   -14 LegendNANA
23:00 -13.4 -15.1 87 26 2   102.80   -15 LegendNANA

Notes on Data Quality.

Legend

  • E = Estimated
  • M = Missing
  • NA = Not Available
Date modified: